EW3259 Weather Reports


time (UTC)temp
C
wind
direction
speed
KPH
gust
KPH
rain 1hr
cm
rain 24hr
cm
rain mn
cm
humidity
%
barometer
mb
20260504151118 21 357 1.6 22.5 0.00 0.00 0.00 52 981.3
20260504150218 21 61 4.8 14.5 0.00 0.00 0.00 53 981.3
20260504130518 16 33 4.8 11.3 0.00 0.00 0.00 66 981.7
20260504120218 11 359 1.6 3.2 0.00 0.00 0.00 79 981.3
20260504100518 10 270 0.0 3.2 0.00 0.00 0.00 77 980.8
20260504081718 11 38 0.0 3.2 0.00 0.00 0.00 70 980.9
20260504080818 11 51 1.6 3.2 0.00 0.00 0.00 70 981.1
20260504060218 12 36 0.0 3.2 0.00 0.00 0.00 67 981.9
20260504045918 12 51 1.6 3.2 0.00 0.00 0.00 64 982.1
20260504044119 12 63 1.6 3.2 0.00 0.00 0.00 64 982.0
20260504043218 12 38 1.6 3.2 0.00 0.00 0.00 64 982.1
20260504042318 12 40 0.0 3.2 0.00 0.00 0.00 64 982.2
20260504041419 12 31 0.0 3.2 0.00 0.00 0.00 62 982.2
20260504040519 12 62 0.0 3.2 0.00 0.00 0.00 61 982.6
20260504035618 12 47 0.0 3.2 0.00 0.00 0.00 61 982.3
20260504033818 12 28 1.6 3.2 0.00 0.00 0.00 61 982.5
20260504032018 12 30 0.0 3.2 0.00 0.00 0.00 60 982.5
20260504031118 13 16 0.0 3.2 0.00 0.00 0.00 58 982.5
20260504030218 13 70 0.0 3.2 0.00 0.00 0.00 57 982.5
20260504025318 13 84 0.0 1.6 0.00 0.00 0.00 56 982.4
20260504024418 14 41 0.0 3.2 0.00 0.00 0.00 55 982.5
20260504023518 14 42 0.0 3.2 0.00 0.00 0.00 55 982.7
20260504021719 13 32 1.6 3.2 0.00 0.00 0.00 58 982.5
20260504020818 13 37 0.0 3.2 0.00 0.00 0.00 59 982.4
20260504015918 12 34 0.0 3.2 0.00 0.00 0.00 61 982.4
20260504015018 12 1 0.0 3.2 0.00 0.00 0.00 62 982.5
20260504014119 12 10 1.6 3.2 0.00 0.00 0.00 61 982.4
20260504010518 15 1 0.0 1.6 0.00 0.00 0.00 51 982.2
20260504005618 15 0 0.0 0.0 0.00 0.00 0.00 50 982.1
20260504004718 16 8 0.0 1.6 0.00 0.00 0.00 44 982.1
20260504003818 17 43 0.0 3.2 0.00 0.00 0.00 42 981.9
20260504002018 18 54 0.0 4.8 0.00 0.00 0.00 39 981.8
20260504001118 18 54 0.0 6.4 0.00 0.00 0.00 38 982.0
20260504000219 18 52 1.6 6.4 0.00 0.00 0.00 37 982.0
20260503235318 19 25 1.6 4.8 0.00 0.00 0.00 37 982.1
20260503234418 19 54 1.6 4.8 0.00 0.00 0.00 37 982.1
20260503233518 19 68 4.8 6.4 0.00 0.00 0.00 36 982.2
20260503232618 19 42 3.2 6.4 0.00 0.00 0.00 35 982.3
20260503231718 20 124 0.0 8.0 0.00 0.00 0.00 35 982.4
20260503225918 20 15 1.6 11.3 0.00 0.00 0.00 33 982.6
20260503225018 20 55 1.6 9.7 0.00 0.00 0.00 32 982.6
20260503224118 20 53 3.2 6.4 0.00 0.00 0.00 32 982.8
20260503223218 20 56 3.2 8.0 0.00 0.00 0.00 32 982.8
20260503222320 20 91 4.8 11.3 0.00 0.00 0.00 30 982.9
20260503221418 21 127 4.8 12.9 0.00 0.00 0.00 30 982.9
20260503220518 21 342 4.8 8.0 0.00 0.00 0.00 30 982.8
20260503215618 21 153 3.2 11.3 0.00 0.00 0.00 29 982.8
20260503214718 21 12 9.7 11.3 0.00 0.00 0.00 30 983.1
20260503213819 21 93 3.2 12.9 0.00 0.00 0.00 31 983.0
20260503212919 21 135 6.4 12.9 0.00 0.00 0.00 30 983.2
20260503212018 21 108 6.4 9.7 0.00 0.00 0.00 30 983.2
20260503210218 21 153 3.2 14.5 0.00 0.00 0.00 31 983.6
20260503204419 21 161 6.4 12.9 0.00 0.00 0.00 32 983.6
20260503203518 21 38 8.0 11.3 0.00 0.00 0.00 34 983.9
20260503202618 21 110 4.8 9.7 0.00 0.00 0.00 35 983.9
20260503201718 20 77 4.8 17.7 0.00 0.00 0.00 33 984.2
20260503200818 21 323 8.0 11.3 0.00 0.00 0.00 35 984.4
20260503195918 20 109 4.8 6.4 0.00 0.00 0.00 34 984.5
20260503195018 20 93 3.2 9.7 0.00 0.00 0.00 33 984.5
20260503194118 20 140 4.8 9.7 0.00 0.00 0.00 35 984.7
20260503193218 20 123 4.8 11.3 0.00 0.00 0.00 34 984.7
20260503192319 20 131 3.2 8.0 0.00 0.00 0.00 35 984.9
20260503191418 19 41 3.2 11.3 0.00 0.00 0.00 35 985.1
20260503190519 19 37 6.4 11.3 0.00 0.00 0.00 35 985.3
20260503185618 20 43 4.8 12.9 0.00 0.00 0.00 36 985.4
20260503184718 20 72 3.2 11.3 0.00 0.00 0.00 34 985.3
20260503183819 19 342 4.8 6.4 0.00 0.00 0.00 34 985.5
20260503182918 19 130 3.2 8.0 0.00 0.00 0.00 33 985.7
20260503182018 18 149 4.8 6.4 0.00 0.00 0.00 36 985.8
20260503181119 19 79 4.8 8.0 0.00 0.00 0.00 36 985.9
20260503180218 18 20 1.6 12.9 0.00 0.00 0.00 37 986.0
20260503175318 19 339 4.8 9.7 0.00 0.00 0.00 38 986.1
20260503174418 18 156 4.8 12.9 0.00 0.00 0.00 36 986.2
20260503173518 18 41 1.6 9.7 0.00 0.00 0.00 34 986.1
20260503172619 18 129 6.4 8.0 0.00 0.00 0.00 36 986.4
20260503171719 18 76 4.8 8.0 0.00 0.00 0.00 37 986.2
20260503170818 17 126 6.4 12.9 0.00 0.00 0.00 38 986.5